Starlink 11143

operational
NORAD ID: 59953 Int'l Des: 2024-107 Owner: SPXS Country: US Constellation: starlink
LEOCIRCULAR

Über Starlink 11143

Beschreibung wird geladen...

Live-Position

3D-Globus wird geladen...

Nächste Überflüge

Höhenverlauf

Altitude vs Time

uPlot chart will show altitude changes over time

Zweizeiliger Elementsatz

1 59953U 24107J 25353.23398842 .00016816 00000-0 12478-3 0 9999
2 59953 53.1550 287.5662 0003421 136.4966 223.6324 15.73046638 89511
Epoch: 19. Dez. 2025 • Age: 22 hours

Aktueller Status

Höhe 354.5 km
Geschwindigkeit 7.70 km/s
Subsatellitenpunkt 46.47°N, 162.76°W
Startdatum 5. Juni 2024
Alter 1.5 years
Typ internet

Technische Details

Klassifizierung Payload
Masse 960.00 kg
Trockenmasse 910.00 kg
Gesamtmasse 960.00 kg
Länge 0.30 m
Durchmesser 4.10 m
Spannweite 29.00 m
Form Box + pan
Hersteller SPXS
Bus-Typ Starlink V2MD
Phasenstatus In Orbit
Besitzer/Staat SPXS/US

Große Konstellationen

Loading constellations...